Temperature
17 17 17 16 16 16 16 15 15 15 15 14 14 14 14 14 14 14 14 13 14 13 13 13 13 13 14 13 13 13 13 13 14 14 14 14 14 14 14 14 14 15 15
17 17 16 16 16 16 15 15 15 15 15 14 14 14 14 14 14 14 14 14 14 14 13 13 13 13 14 14 13 13 13 13 14 14 14 14 14 14 14 14 14 14 14
17 17 16 16 16 16 15 15 15 15 14 14 14 14 14 14 14 14 14 13 13 13 13 13 13 13 13 14 14 13 13 13 13 13 14 14 14 14 14 14 14 14 14
17 17 16 16 16 15 15 15 15 15 14 14 14 14 14 14 14 13 13 13 13 13 13 13 13 13 13 13 13 13 13 13 13 13 13 13 13 13 14 14 14 14 14
17 16 16 16 16 15 15 15 15 14 14 14 14 14 14 14 14 13 13 13 13 13 13 13 13 13 13 13 13 13 13 13 13 13 13 13 13 13 13 13 13 14 14
16 16 16 15 15 15 15 15 14 14 14 14 14 14 14 13 13 13 13 13 13 13 13 13 13 13 13 13 13 13 13 13 13 13 13 13 13 13 13 13 13 13 13
16 16 15 15 15 15 15 14 14 14 14 14 13 13 13 13 13 13 13 13 13 13 13 13 13 13 13 13 13 13 13 13 13 13 13 13 13 13 13 13 13 13 13
16 16 15 15 15 15 14 14 14 14 13 13 13 13 13 13 13 13 13 13 13 13 13 13 13 13 13 13 13 13 13 13 13 13 13 13 13 13 13 13 13 13 13
16 15 15 15 15 14 14 14 13 13 13 13 13 13 13 13 13 12 12 12 12 12 12 12 12 12 13 13 13 13 13 13 13 13 13 13 13 13 13 12 12 12 12
15 15 15 14 14 14 14 13 13 13 13 13 13 12 12 12 12 12 12 12 12 12 12 12 12 12 12 12 12 12 12 12 12 12 12 12 12 12 12 12 12 12 12
15 15 14 14 14 13 13 13 13 12 12 12 12 12 12 12 12 12 12 12 12 12 12 12 12 12 12 12 12 12 12 12 12 12 12 12 12 12 12 12 12 12 12
14 14 14 14 13 13 13 13 12 12 12 12 12 12 12 12 12 12 11 11 11 11 11 12 12 12 12 12 12 12 12 12 12 12 12 12 12 12 12 12 12 12 12
14 14 14 13 13 13 12 12 12 12 12 12 11 11 11 11 11 11 11 11 11 11 11 11 11 11 11 11 11 11 11 11 11 11 11 11 11 11 11 11 11 11 11
13 13 13 13 12 12 12 12 11 11 11 11 11 11 11 11 11 11 11 11 11 11 11 11 11 11 11 11 11 11 11 11 11 11 11 11 11 11 11 11 11 11 11
13 13 12 12 12 12 11 11 11 11 11 11 11 11 11 11 11 10 10 10 10 10 10 10 10 10 10 11 10 10 10 10 10 10 10 10 10 10 10 10 10 10 10
12 12 12 12 11 11 11 11 11 11 11 10 10 10 10 10 10 10 10 10 10 10 10 10 10 10 10 10 10 10 10 10 10 10 10 10 10 10 10 10 10 10 10
11 11 11 11 11 11 10 10 10 11 10 10 10 10 10 10 10 10 10 10 10 10 10 10 10 9 9 9 9 9 9 9 9 9 9 9 9 9 9 9 9 9 9
11 11 10 10 10 10 10 10 10 10 10 10 10 10 10 10 10 9 9 9 9 9 9 9 9 9 9 9 9 9 9 9 9 9 9 9 9 9 9 9 9 9 9
10 10 10 10 10 9 9 9 9 9 9 9 9 9 9 9 9 9 9 9 9 9 9 9 9 9 9 9 9 8 8 8 8 8 8 8 8 8 8 8 8 8 8
10 10 9 9 9 9 9 9 9 9 9 9 9 9 9 9 9 9 9 9 9 9 9 9 9 9 9 8 8 8 8 8 8 8 8 8 8 8 8 8 8 8 8
9 9 9 9 9 9 9 8 8 8 8 8 8 8 8 8 8 8 8 8 8 8 8 8 8 8 8 8 8 8 8 8 8 8 8 7 7 7 7 7 7 7 7
9 9 8 8 8 8 8 8 8 8 8 8 8 8 8 8 8 8 8 8 8 8 8 8 8 8 8 8 8 8 8 8 8 7 7 7 7 7 7 7 7 7 7
8 8 8 8 8 8 7 7 7 7 7 7 7 7 7 8 8 8 8 8 8 8 8 7 8 8 8 8 7 7 7 7 7 7 7 7 7 7 7 7 7 7 6
8 8 7 7 7 7 7 7 7 7 7 7 7 7 7 7 7 7 7 7 7 7 7 7 7 7 7 7 7 7 7 7 7 7 7 7 7 6 6 6 6 6 6
8 7 7 7 7 7 7 7 7 7 7 7 7 7 7 7 7 7 7 7 7 7 7 7 7 7 7 7 7 7 7 7 7 6 6 6 6 6 6 6 6 6 6
7 7 7 7 6 6 6 6 6 6 6 6 6 6 6 6 7 7 7 7 7 7 7 7 7 7 7 7 7 7 6 6 6 6 6 6 6 6 6 6 6 5 5
Wind_Speed
3 2 2 2 2 1 1 1 1 1 1 1 1 1 1 1 1 1 2 2 2 2 2 1 2 1 1 1 1 1 2 3 3 3 2 2 1 1 1 2 3 4 4
3 2 2 2 2 1 1 1 1 1 1 1 1 1 1 2 1 2 2 2 2 2 2 1 2 2 1 2 1 1 2 3 3 3 2 1 1 2 2 2 1 3 3
3 3 2 1 2 1 1 0 0 0 0 1 1 1 2 2 2 2 2 3 3 3 3 2 3 1 2 2 2 2 2 2 2 2 2 1 1 0 1 0 1 0 1
3 3 2 1 1 1 1 0 0 0 0 1 1 1 2 2 2 2 2 2 3 3 3 3 3 3 3 3 2 3 2 1 1 1 1 1 1 1 1 1 0 0 1
4 3 2 1 1 1 0 0 0 1 1 1 1 2 2 2 2 3 2 2 3 4 4 4 3 3 3 3 2 3 3 2 1 1 1 0 1 0 1 1 2 1 0
3 2 1 1 1 1 0 1 0 1 2 2 2 2 3 3 4 3 2 2 2 3 4 4 4 3 4 3 3 3 4 4 4 2 2 2 2 2 2 2 2 1 1
2 2 1 1 0 1 1 1 1 1 1 2 2 2 3 4 4 4 3 2 2 3 4 4 4 3 3 2 2 2 2 3 4 4 4 4 3 3 3 3 3 3 3
2 1 1 1 0 0 1 1 2 1 1 2 2 2 3 4 5 4 4 2 2 3 3 3 4 4 3 2 1 1 1 2 3 3 4 4 4 4 4 4 4 2 1
1 1 1 1 1 0 1 2 2 1 2 2 2 2 2 4 5 4 2 2 2 3 3 3 3 3 3 1 1 1 2 3 2 2 3 3 2 3 3 3 3 3 2
1 1 1 1 1 1 2 2 2 1 2 2 2 2 2 3 4 3 3 1 2 3 3 4 4 3 3 2 1 1 2 3 2 1 1 2 1 1 1 3 4 4 2
1 0 0 1 1 2 1 1 1 2 2 2 3 3 3 3 4 3 1 1 1 1 2 3 4 4 4 3 2 2 4 3 2 1 1 1 1 1 1 0 2 3 4
1 0 1 1 2 1 0 1 1 1 2 3 3 4 3 4 4 4 3 2 1 1 3 3 4 5 5 5 3 3 3 1 0 1 1 1 1 2 2 1 1 1 2
1 1 1 2 2 1 1 1 1 1 2 3 3 4 4 4 4 5 5 4 3 2 3 5 6 5 5 4 3 2 1 0 1 1 2 3 3 2 2 1 0 1 1
0 1 1 2 2 2 2 2 2 2 3 3 3 4 4 4 4 4 3 3 3 3 3 4 4 4 3 3 3 2 1 2 2 2 2 2 1 1 1 1 1 1 0
1 1 2 2 2 2 2 3 4 4 5 5 5 5 4 5 7 7 4 3 3 3 2 1 1 2 2 2 2 2 1 1 1 1 1 1 1 1 1 1 1 1 2
1 2 2 2 2 2 2 4 5 6 8 9 8 7 6 8 9 8 8 8 7 4 1 2 2 2 2 2 2 3 2 2 2 2 2 2 2 2 2 1 1 2 2
1 2 2 2 2 3 3 3 5 7 8 8 9 9 8 9 8 8 7 7 6 4 3 4 4 4 4 3 3 3 3 3 2 2 3 3 2 2 2 2 2 2 2
1 2 2 2 3 3 3 4 4 4 5 6 7 9 9 9 8 8 6 3 3 3 4 5 5 5 4 4 4 4 4 3 2 3 3 3 2 2 2 3 3 3 3
2 2 2 2 3 3 3 4 4 5 5 5 5 6 7 7 7 7 5 4 5 5 5 5 6 5 5 5 5 5 4 4 4 4 3 4 3 3 3 3 3 4 3
2 5 4 3 3 3 3 4 4 5 5 5 5 5 4 3 3 4 4 5 5 6 6 6 6 6 6 5 5 5 4 5 5 4 4 4 4 4 4 4 4 4 4
3 4 6 4 3 4 4 5 5 5 6 6 6 7 7 5 5 6 6 6 6 6 6 6 6 6 5 5 5 5 6 5 5 5 5 5 4 4 4 4 4 4 4
3 4 4 4 4 5 5 5 5 6 6 7 6 7 9 6 5 6 6 7 7 6 6 6 6 6 6 6 6 5 6 6 6 5 5 5 5 4 4 4 4 4 4
3 4 5 5 5 7 6 5 6 6 7 7 7 6 6 6 6 7 7 7 6 6 6 6 6 6 6 6 6 6 6 6 6 6 6 5 5 5 5 5 5 5 5
4 5 6 6 6 6 6 7 7 7 7 7 7 7 7 7 7 8 7 7 6 7 6 6 7 8 9 7 7 7 8 7 7 7 7 6 6 6 5 5 5 6 6
5 6 6 6 7 7 7 7 8 8 8 8 8 8 7 7 8 8 7 7 7 7 8 8 7 8 10 10 9 9 10 10 10 8 7 6 6 7 6 6 5 5 5
6 6 6 6 7 7 7 8 8 9 8 8 8 8 8 8 8 8 7 7 7 7 8 8 9 10 11 11 12 13 12 12 11 11 8 6 6 6 7 6 7 6 7
Wind_Direction
187 178 157 183 190 177 179 212 215 224 226 234 252 244 251 283 278 273 291 295 308 304 310 302 291 279 275 281 254 202 190 172 210 274 279 283 276 239 219 205 198 194 205
170 160 165 158 134 143 183 218 165 176 240 253 245 247 263 273 274 261 272 282 278 294 288 284 287 289 279 273 258 242 223 199 192 245 282 291 267 234 200 186 194 199 201
142 133 134 125 138 162 191 211 99 107 352 334 328 289 289 286 281 272 257 261 257 262 266 251 262 272 279 272 255 251 245 223 193 206 253 258 280 269 121 128 148 146 192
125 124 121 146 182 191 184 122 170 241 331 317 306 298 290 290 296 291 275 271 274 274 277 258 250 238 247 251 245 242 228 212 190 200 242 260 267 299 126 171 200 181 197
127 131 161 168 121 119 101 280 343 346 322 303 317 316 315 308 311 313 300 290 283 285 290 277 255 243 246 233 230 224 204 193 187 191 226 252 265 246 227 211 191 178 246
136 159 176 132 84 61 330 312 341 314 318 347 337 318 322 321 319 319 333 310 297 290 286 284 270 261 271 267 252 215 192 193 198 191 208 218 244 233 222 190 174 172 247
141 156 163 152 128 315 354 11 327 294 310 330 322 325 317 313 327 334 336 337 307 301 288 287 287 280 276 266 271 257 235 209 194 188 200 226 228 222 202 199 191 191 213
128 148 161 145 177 332 12 340 316 301 296 292 298 297 304 316 326 326 336 353 329 317 303 286 284 288 284 262 247 274 274 269 242 213 206 228 233 227 207 203 193 175 172
130 204 220 186 204 300 303 288 282 297 299 293 298 291 298 317 334 349 14 15 351 332 326 319 297 283 294 289 238 254 275 283 275 214 200 214 225 228 197 160 159 162 208
216 239 237 196 202 240 255 265 279 294 291 300 303 291 282 300 332 359 31 48 0 339 333 322 314 309 317 325 220 230 261 275 275 283 270 290 296 318 193 182 185 183 189
215 190 20 234 228 234 248 275 301 311 324 323 307 302 293 288 311 320 342 18 273 308 318 313 308 314 315 304 280 237 239 250 258 241 255 283 299 297 299 187 177 187 194
150 106 319 297 276 274 239 282 303 308 316 310 307 307 299 292 289 291 285 276 272 235 271 288 298 307 308 298 281 268 260 248 217 190 216 261 263 261 257 230 157 162 194
76 297 289 306 306 276 226 244 287 288 285 290 288 286 292 295 293 293 284 275 268 255 261 278 295 305 312 304 292 286 273 184 171 212 238 249 252 251 245 234 304 109 63
73 294 296 306 307 305 276 242 240 252 263 274 277 276 281 288 284 281 277 271 270 285 286 293 304 314 317 306 312 305 271 211 195 207 234 260 271 272 254 225 220 212 163
6 315 307 296 281 289 287 268 254 247 240 247 253 253 257 270 266 262 258 257 249 250 280 317 343 337 333 330 321 309 300 265 230 224 218 248 255 254 274 255 213 187 196
4 319 307 300 295 286 290 307 299 284 282 272 266 261 258 256 265 268 269 263 255 241 223 225 238 246 257 263 277 286 283 258 240 227 219 226 235 228 233 244 216 199 207
229 276 290 293 292 286 281 283 299 311 309 296 287 278 271 271 269 265 267 265 253 223 221 227 229 233 241 246 245 249 255 253 233 216 220 222 229 232 216 213 205 205 221
269 284 293 276 274 277 277 274 272 282 299 304 299 288 281 275 269 261 255 248 262 237 231 232 234 235 235 237 241 246 245 246 237 227 224 218 214 221 215 209 206 206 217
273 275 274 277 279 279 285 286 281 279 280 287 297 301 290 285 279 267 238 228 241 245 242 241 237 235 238 236 237 239 236 231 229 224 223 217 208 211 223 215 210 202 203
268 289 295 282 280 284 285 289 288 283 281 281 281 283 292 298 286 275 252 245 245 246 243 242 239 237 235 236 236 233 234 232 226 226 224 218 210 204 214 215 207 203 207
262 281 295 291 273 271 274 275 277 277 276 274 274 275 269 267 261 258 254 249 247 246 244 243 238 235 233 235 234 231 234 237 230 224 221 217 208 208 212 215 209 202 199
254 264 266 266 268 268 270 269 269 271 274 275 277 280 272 265 260 257 252 251 249 246 241 240 239 236 230 232 231 230 236 239 233 226 224 221 215 211 207 210 208 200 195
249 261 266 268 268 272 275 270 268 269 271 274 274 272 267 261 261 259 257 256 252 248 241 235 238 241 235 226 219 219 228 234 231 221 223 222 218 218 213 210 209 204 202
248 257 263 268 270 268 268 270 270 269 270 272 273 268 263 259 261 262 259 257 252 246 238 235 237 241 236 230 226 224 226 227 221 214 214 219 216 218 214 209 214 210 203
250 257 259 262 265 266 268 269 269 269 270 271 271 270 266 262 261 262 258 254 251 247 243 239 237 237 232 230 230 231 230 225 224 219 212 213 216 215 210 205 209 211 202
254 257 259 260 261 262 263 265 267 267 268 269 268 265 265 264 262 258 258 256 251 248 244 240 239 239 235 231 232 230 226 222 219 217 209 208 212 215 208 206 205 205 197
Height
1532 1532 1532 1531 1531 1531 1531 1530 1529 1528 1527 1526 1525 1524 1523 1522 1521 1519 1518 1517 1516 1515 1514 1514 1513 1512 1512 1512 1511 1511 1511 1511 1511 1510 1510 1510 1511 1511 1512 1512 1513 1514 1516
1531 1531 1531 1531 1530 1530 1529 1529 1528 1527 1526 1525 1524 1523 1522 1521 1520 1519 1517 1516 1515 1514 1513 1512 1512 1511 1510 1510 1510 1510 1510 1510 1509 1509 1509 1509 1509 1509 1510 1511 1512 1513 1514
1530 1530 1529 1529 1529 1528 1528 1527 1526 1526 1525 1523 1522 1521 1520 1519 1518 1517 1516 1515 1514 1513 1512 1511 1510 1509 1509 1508 1508 1508 1508 1508 1508 1507 1507 1507 1507 1508 1508 1509 1510 1511 1512
1528 1528 1528 1528 1527 1527 1526 1526 1525 1524 1523 1522 1521 1520 1519 1518 1517 1516 1515 1513 1512 1511 1510 1509 1509 1508 1507 1507 1506 1506 1506 1506 1506 1506 1505 1505 1505 1506 1506 1506 1507 1508 1509
1527 1527 1527 1527 1526 1526 1525 1524 1523 1523 1521 1520 1519 1518 1517 1516 1515 1514 1513 1511 1510 1509 1508 1507 1506 1506 1506 1505 1505 1504 1504 1504 1504 1504 1503 1503 1503 1503 1504 1504 1505 1506 1507
1526 1526 1526 1525 1525 1524 1523 1522 1522 1521 1520 1519 1517 1516 1515 1514 1513 1512 1511 1509 1508 1507 1506 1505 1504 1504 1503 1503 1503 1503 1503 1502 1502 1502 1502 1501 1501 1502 1502 1502 1503 1504 1504
1525 1524 1524 1523 1523 1522 1521 1520 1519 1518 1517 1516 1515 1514 1513 1512 1511 1510 1508 1507 1506 1505 1504 1503 1502 1501 1501 1501 1501 1500 1500 1500 1500 1500 1499 1499 1499 1499 1500 1500 1501 1501 1502
1523 1523 1522 1521 1521 1520 1519 1518 1517 1516 1515 1514 1513 1512 1511 1510 1508 1507 1506 1505 1503 1502 1501 1500 1499 1499 1498 1498 1498 1497 1497 1497 1497 1497 1497 1497 1497 1497 1498 1498 1498 1499 1499
1521 1521 1520 1519 1519 1518 1517 1516 1515 1514 1513 1512 1511 1510 1508 1507 1506 1505 1504 1502 1501 1500 1499 1498 1497 1497 1496 1496 1495 1495 1494 1494 1495 1495 1494 1494 1495 1495 1495 1496 1496 1496 1496
1519 1519 1518 1518 1517 1516 1515 1514 1513 1512 1510 1509 1508 1507 1506 1505 1504 1503 1501 1500 1498 1497 1496 1496 1495 1494 1494 1493 1492 1492 1491 1491 1491 1491 1491 1491 1492 1492 1492 1493 1493 1494 1493
1518 1517 1516 1516 1515 1514 1513 1512 1511 1510 1508 1507 1505 1504 1503 1502 1501 1500 1499 1497 1496 1495 1493 1492 1492 1491 1491 1490 1490 1489 1489 1488 1488 1488 1488 1488 1488 1488 1489 1489 1490 1490 1491
1516 1515 1514 1513 1512 1511 1511 1509 1508 1507 1505 1504 1502 1501 1500 1499 1498 1497 1496 1495 1493 1492 1490 1489 1489 1488 1487 1487 1487 1486 1486 1486 1485 1485 1485 1485 1485 1485 1485 1486 1486 1487 1487
1513 1512 1512 1511 1510 1509 1508 1507 1506 1504 1503 1501 1500 1498 1497 1496 1495 1494 1493 1492 1490 1489 1487 1486 1486 1485 1484 1483 1483 1483 1483 1482 1482 1482 1481 1482 1482 1482 1482 1483 1483 1483 1484
1510 1510 1509 1508 1507 1506 1505 1504 1503 1501 1500 1498 1497 1495 1493 1492 1491 1490 1489 1488 1487 1485 1484 1483 1482 1482 1481 1480 1480 1480 1479 1479 1479 1479 1478 1479 1479 1479 1479 1480 1480 1480 1480
1508 1507 1506 1505 1504 1503 1502 1501 1499 1498 1497 1495 1494 1492 1490 1488 1487 1487 1485 1484 1483 1482 1480 1479 1478 1478 1477 1476 1476 1476 1476 1476 1475 1475 1475 1475 1475 1475 1476 1476 1476 1476 1477
1505 1504 1503 1502 1501 1499 1498 1497 1496 1495 1493 1492 1490 1488 1486 1485 1484 1482 1481 1480 1479 1478 1477 1475 1474 1474 1473 1473 1472 1472 1472 1472 1472 1472 1472 1472 1472 1472 1472 1472 1472 1473 1473
1502 1501 1500 1498 1497 1496 1494 1492 1490 1489 1488 1487 1485 1484 1482 1481 1479 1478 1477 1476 1475 1473 1472 1471 1471 1470 1470 1469 1469 1468 1468 1468 1468 1468 1468 1468 1468 1468 1468 1468 1468 1469 1469
1499 1498 1496 1495 1493 1492 1490 1488 1487 1484 1482 1480 1480 1479 1477 1475 1474 1473 1472 1471 1469 1468 1467 1467 1466 1466 1465 1465 1464 1464 1464 1463 1463 1463 1464 1464 1464 1464 1464 1464 1464 1465 1466
1495 1494 1492 1491 1489 1488 1486 1484 1482 1480 1478 1476 1474 1473 1472 1470 1469 1468 1467 1465 1464 1463 1462 1462 1461 1461 1460 1460 1459 1459 1459 1459 1459 1459 1459 1459 1459 1460 1459 1460 1460 1461 1461
1491 1490 1488 1487 1485 1483 1481 1479 1477 1475 1473 1471 1469 1468 1466 1465 1463 1461 1461 1460 1458 1457 1457 1456 1456 1455 1455 1455 1454 1453 1453 1453 1453 1453 1454 1454 1455 1455 1455 1455 1456 1456 1457
1487 1485 1484 1482 1480 1478 1476 1474 1472 1470 1468 1466 1464 1463 1461 1460 1458 1456 1455 1454 1453 1452 1451 1450 1449 1449 1449 1449 1448 1448 1447 1447 1447 1448 1448 1449 1449 1450 1450 1450 1451 1451 1452
1482 1480 1479 1477 1475 1473 1471 1469 1467 1465 1462 1460 1458 1457 1455 1454 1452 1450 1449 1448 1447 1446 1445 1444 1443 1443 1443 1443 1442 1442 1441 1441 1441 1442 1442 1443 1444 1444 1445 1445 1445 1446 1447
1476 1475 1473 1471 1469 1467 1465 1463 1461 1459 1456 1454 1452 1450 1448 1447 1445 1444 1443 1442 1440 1439 1439 1438 1437 1436 1436 1436 1436 1436 1435 1435 1435 1436 1436 1436 1437 1438 1439 1440 1440 1441 1442
1471 1469 1467 1465 1463 1461 1458 1456 1454 1452 1450 1448 1446 1444 1442 1440 1438 1437 1436 1435 1434 1433 1432 1431 1430 1430 1429 1430 1429 1429 1429 1429 1430 1430 1430 1430 1431 1432 1433 1433 1434 1435 1437
1465 1462 1460 1458 1456 1454 1452 1449 1447 1445 1443 1441 1439 1437 1435 1433 1431 1430 1429 1428 1427 1426 1425 1424 1423 1423 1423 1423 1423 1423 1423 1423 1423 1423 1424 1424 1425 1426 1427 1428 1429 1430 1431
1458 1456 1454 1451 1449 1447 1445 1442 1440 1438 1436 1434 1431 1429 1428 1426 1424 1423 1421 1420 1419 1418 1417 1416 1416 1415 1415 1415 1415 1416 1416 1416 1416 1417 1417 1418 1418 1419 1420 1422 1423 1424 1425